Regional Weather Roundup
Issued by NWS Upton, NY

Current Version | Previous Version | Text Only | Print | Product List | Glossary Off
Versions: 1 2 3 4 5 6 7 8 9 10 11 12 13 14 15 16 17 18 19 20 21 22 23 24 25 26 27 28 29 30 31 32 33 34 35 36 37 38 39 40 41 42 43 44 45 46 47 48 49 50
000 ASUS41 KOKX 021218 RWROKX REGIONAL WEATHER ROUNDUP NATIONAL WEATHER SERVICE NEW YORK NY 800 AM EDT TUE JUN 02 2015 NOTE: "FAIR" INDICATES FEW OR NO CLOUDS BELOW 12,000 FEET WITH NO SIGNIFICANT WEATHER AND/OR OBSTRUCTIONS TO VISIBILITY. NYZ071-072-176-178-NJZ106-104-021300- NEW YORK CITY METRO AREA CITY SKY/WX TMP DP RH WIND PRES REMARKS CENTRAL PARK CLOUDY 51 48 89 VRB6 30.16S FOG LAGUARDIA APRT LGT RAIN 50 47 89 N12 30.13R VSB 1 KENNEDY INTL LGT RAIN 51 48 89 N10 30.13R FOG NEWARK/LIBERTY LGT RAIN 52 49 90 NE15G22 30.12R FOG BRNX BOT. GARD N/A 48 46 93 N14 30.15R TETERBORO CLOUDY 52 48 87 NE8 30.12S FOG $$ NYZ177-179-078>081-021300- LONG ISLAND NEW YORK CITY SKY/WX TMP DP RH WIND PRES REMARKS FARMINGDALE CLOUDY 50 48 93 NE12 30.12R FOG ISLIP CLOUDY 50 47 89 N18 30.09R SHIRLEY CLOUDY 50 48 93 N8 30.12R WESTHAMPTON CLOUDY 50 49 96 N10 30.12R FOG MONTAUK POINT N/A 51 47 86 NE10G18 30.11S $$ NYZ052-065-067-021300- HUDSON VALLEY CITY SKY/WX TMP DP RH WIND PRES REMARKS WHITE PLAINS LGT RAIN 49 46 90 NE6 30.13R FOG NEWBURGH LGT RAIN 48 48 100 NE7 30.15R FOG MONTGOMERY LGT RAIN 50 48 93 NE9 30.14R POUGHKEEPSIE CLOUDY 50 47 89 N6 30.14S ALBANY CLOUDY 51 47 86 N3 30.17R $$ NJZ001-105-106-008-010-013-015-019>022-104-021300- NEW JERSEY CITY SKY/WX TMP DP RH WIND PRES REMARKS NEWARK/LIBERTY LGT RAIN 52 49 90 NE15G22 30.12R FOG TETERBORO CLOUDY 52 48 87 NE8 30.12S FOG CALDWELL CLOUDY 49 46 90 NE7 30.14S FOG MORRISTOWN LGT RAIN 55 55 100 NE8 30.14R FOG SOMERVILLE CLOUDY 52 49 89 CALM 30.12R SUSSEX LGT RAIN 49 45 86 NE7 30.14R ANDOVER N/A 49 47 93 VRB6 30.13R TRENTON CLOUDY 51 48 89 NE14 30.12R MILLVILLE CLOUDY 55 54 96 NE10 30.07R ATLANTIC CITY CLOUDY 55 53 93 NE14 30.09R FOG WRIGHTSTOWN LGT RAIN 52 52 100 NE10 30.09S TOMS RIVER CLOUDY N/A N/A N/A NE12 30.11R BELMAR CLOUDY 52 45 76 NE12G17 30.12R $$ PAZ047>061-062-071-021300- EASTERN PENNSYLVANIA CITY SKY/WX TMP DP RH WIND PRES REMARKS PHILADELPHIA DRIZZLE 53 50 89 NE14 30.11R FOG ALLENTOWN LGT RAIN 52 46 82 E9 30.13R FOG SCRANTON LGT RAIN 52 48 86 NE3 30.12R $$ CTZ002-004>006-009-010-012-RIZ004-006-007-MAZ004-011-015-021300- SOUTHERN NEW ENGLAND IN CT CITY SKY/WX TMP DP RH WIND PRES REMARKS BRADLEY INTL LGT RAIN 48 45 89 N12 30.15S FOG HARTFORD LGT RAIN 49 46 90 N9 30.15S DANBURY CLOUDY 48 43 82 NE7 30.15R WTRBRY/OXFORD CLOUDY 48 39 71 NE12G18 30.14R BRIDGEPORT LGT RAIN 50 47 89 NE9 30.13R MERIDEN LGT RAIN 49 45 86 VRB7 30.15R NEW HAVEN CLOUDY 49 47 93 N10 30.13R CHESTER DRIZZLE 46 46 100 N8 30.13R GROTON CLOUDY 50 46 86 NE10 30.11R WILLIMANTIC LGT RAIN 49 45 86 NE8 30.14F IN RI CITY SKY/WX TMP DP RH WIND PRES REMARKS PROVIDENCE LGT RAIN 48 46 93 N13 30.14F FOG BLOCK ISLAND CLOUDY 48 45 87 NE15G22 30.11S WESTERLY CLOUDY 49 47 93 N8 30.11S IN MA CITY SKY/WX TMP DP RH WIND PRES REMARKS BOSTON LGT RAIN 47 46 97 NE13 30.19S FOG WORCESTER LGT RAIN 44 42 93 NE9G17 30.15F FOG WESTFIELD LGT RAIN 48 45 89 N10 30.17S PROVINCETOWN CLOUDY 52 45 76 N12 30.16R NANTUCKET CLOUDY 54 51 90 N13 30.09S $$ ANZ330-335-338-340-345-350-353-355-021300- COASTAL MARINE OBSERVATIONS STATION/POSITION TIME SKY/WX TEMP WIND PRES VSBY WAVE AIR SEA DIR/SP/G HT/PER (UTC) (F) (DEG/KT/KT) (MB) (MI) (FT/S) NY HARB ENTRANCE 1150 51 56 20/ 16/ 17 1018.8 5/ 5 4S FIRE IS 1103 56 N/A 4/ 7 20S FIRE ISLAND 1150 52 58 40/ 19/ 23 1018.4 7/ 6 GREAT SOUTH BAY 1115 51 66 30/ 14/ 17 N/A 23SW MTP 1150 52 56 40/ 21/ 25 1018.0 5/ 6 HUDSON CANYON NOT AVBL KINGS POINT 1100 50 56 30/ 5/ 10 1019.1 CENTRAL LI SOUND NOT AVBL EASTERN LI SOUND 1100 49 30/ 12/ 17 N/A ROBBINS REEF 1100 51 50/ 12/ 16 1018.6 $$ >>>>>>>>>>>>>>>>>>>>>>>>>>>> KEY <<<<<<<<<<<<<<<<<<<<<<<<<<< > < > SKY/WX - SKY CONDITION/PRESENT WEATHER < > TMP - TEMPERATURE IN FAHRENHEIT < > DP - DEWPOINT IN FAHRENHEIT < > RH - RELATIVE HUMIDITY IN PERCENT < > WIND - DIRECTION AND SPEED IN MPH < > PRES - MEAN SEA LEVEL PRESSURE IN INCHES OF HG < > WCI - WIND CHILL INDEX < > VSB - VISIBILITY IN MILES < > HX - HEAT INDEX < > TC - TEMPERATURE IN CELSIUS < > VRB - VARIABLE WIND DIRECTION < > < >>>>>>>>>>>>>>>>>>>>>>>>>>>> KEY <<<<<<<<<<<<<<<<<<<<<<<<<<<

USA.gov is the U.S. government's official web portal to all federal, state and local government web resources and services.